Regional Weather Roundup
Issued by NWS

Home | Current Version | Previous Version | Text Only | Print | Product List | Glossary On
Versions: 1 2 3 4 5 6 7 8 9 10 11 12 13 14 15 16 17 18 19 20 21 22 23 24 25 26 27 28 29 30 31 32 33 34 35 36 37 38 39 40 41 42 43 44 45 46 47 48 49 50
000
ASUS46 KSTO 040009
RWRCA

NORTHERN AND CENTRAL CA REGIONAL WEATHER ROUNDUP
NATIONAL WEATHER SERVICE SACRAMENTO CA
500 PM PDT FRI JUL 03 2015

NOTE: FAIR INDICATES FEW OR NO CLOUDS BELOW 12,000 FEET WITH NO
SIGNIFICANT WEATHER AND/OR OBSTRUCTIONS TO VISIBILITY.

CAZ001-003-040100-
NORTHWEST AREA

CITY           SKY/WX    TMP DP  RH WIND       PRES   REMARKS
CRESCENT CITY  PTSUNNY   58  55  90 SW7       29.93F
ARCATA         NOT AVBL
SHELTER COVE   NOT AVBL
UKIAH          MOSUNNY   96  55  25 NW9       29.83F HX  94
$$

CAZ006-505>513-040100-
BAY AREA

CITY           SKY/WX    TMP DP  RH WIND       PRES   REMARKS
SANTA ROSA     SUNNY     78  57  48 S15       29.86S
SAN RAFAEL     N/A       83  MM  MM MISG
NAPA           SUNNY     76  59  55 S17       29.85F
CONCORD        SUNNY     90  53  28 W12       29.84S
OAKLAND CITY   N/A       72  MM  MM MISG
OAKLAND        MOSUNNY   69  57  65 W18       29.89S
SAN FRAN CITY  N/A       64  MM  77 MISG
SAN FRAN ARPT  MOSUNNY   68  57  68 W23       29.88S
LIVERMORE      SUNNY     90  53  28 W17       29.83F
HAYWARD        SUNNY     73  58  59 NW18      29.88S
REDWOOD CITY   N/A       MM  MM  MM MISG
MOFFETT ARPT   SUNNY     74  61  63 N15       29.87F
SAN JOSE ARPT  MOSUNNY   79  60  52 W14       29.85F
$$
CAZ034-037-514>518-040100-
CENTRAL COAST

CITY           SKY/WX    TMP DP  RH WIND       PRES   REMARKS
WATSONVILLE    MOSUNNY   65  58  78 SW10      29.92F
SALINAS        SUNNY     69  57  65 NW16      29.90F
MONTEREY       SUNNY     68  57  68 W10       29.92F
PT PIEDRAS BLS NOT AVBL
SAN LUIS OBISP MOSUNNY   73  56  54 NW13      29.90F
SANTA MARIA    SUNNY     70  59  68 NW10      29.92F
$$
CAZ015-016-040100-
NORTHERN SACRAMENTO VALLEY

CITY           SKY/WX    TMP DP  RH WIND       PRES   REMARKS
REDDING        PTSUNNY  101  54  20 S14       29.78F HX  99
RED BLUFF      PTSUNNY   97  55  24 S7        29.79F HX  95
OROVILLE       SUNNY     96  60  30 VRB6      29.80F HX  96
$$
CAZ016>018-040100-
SOUTHERN SACRAMENTO VALLEY

CITY           SKY/WX    TMP DP  RH WIND       PRES   REMARKS
AUBURN         SUNNY     93  54  26 W3        29.88F HX  91
BEALE AFB      SUNNY     95  59  30 VRB7      29.77F HX  95
LINCOLN        FAIR      97  50  20 W6        29.78F HX  94
MARYSVILLE     SUNNY     96  56  26 SW5       29.78F HX  94
SAC INTL ARPT  SUNNY     95  65  37 NE7       29.78F HX  97
MATHER AIRPORT MOSUNNY   97  54  23 CALM      29.79F HX  94
DOWNTOWN SAC   N/A       98  MM  MM MISG
SAC EXEC ARPT  SUNNY     97  57  26 SW8       29.79F HX  96
VACAVILLE      SUNNY     98  59  27 VRB7      29.80F HX  98
TRAVIS AFB     SUNNY     89  59  36 W20G26    29.78F
$$
CAZ019>021-040100-
SAN JOAQUIN VALLEY

CITY           SKY/WX    TMP DP  RH WIND       PRES   REMARKS
STOCKTON       SUNNY     97  56  25 NW13      29.79F HX  95
MODESTO        SUNNY     98  53  22 NW10      29.78F HX  96
MERCED         SUNNY     98  56  24 NW12      29.77F HX  96
LEMOORE        SUNNY    102  50  17 NW10      29.77F HX  99
FRESNO         MOSUNNY  101  49  17 NW6       29.77F HX  98
HANFORD        SUNNY    102  52  18 N7        29.77F HX  99
PORTERVILLE    MOSUNNY  100  55  22 W14       29.79F HX  99
BAKERSFIELD    SUNNY    101  53  20 NW10G22   29.77F HX  99
$$
CAZ011-012-071-040100-
NORTHERN MOUNTAINS

CITY           SKY/WX    TMP DP  RH WIND       PRES   REMARKS
YREKA          NOT AVBL
MOUNT SHASTA   CLOUDY    80  57  45 CALM      30.00F
ALTURAS        CLOUDY    92  49  22 SW14G22   29.99F
$$
CAZ011-012-071-040100-
SIERRA NEVADA MTNS

CITY           SKY/WX    TMP DP  RH WIND       PRES   REMARKS
BLUE CANYON    SUNNY     78  54  43 SW10      30.14F
TRUCKEE        PTSUNNY   79  55  44 N3        30.16F
TAHOE VLY ARPT PTSUNNY   83  55  38 NE14      30.16F
MAMMOTH LAKES  PTSUNNY   81  37  21 S6        30.21S
$$




USA.gov is the U.S. government's official web portal to all federal, state and local government web resources and services.